Location: Llanfihangel-Ystrad
(52.1833°N, 4.1667°W)
Time: 20:18:50
(UTC+00:00)

Cosmos 2369 Rocket - Pass Details

Date: 17 February 2020
Orbit: 827 x 854 km, 71.0° (Epoch: 03 April)

Event Time Altitude Azimuth Distance (km) Brightness Sun altitude
Exits shadow 06:31:13 - 321° (NW) 3,248 4.8 -9.5°
Reaches altitude 10° 06:33:30 10° 311° (NW) 2,493 4.1 -9.1°
Maximum altitude 06:38:10 27° 256° (WSW) 1,605 3.2 -8.4°
Drops below altitude 10° 06:42:49 10° 201° (SSW) 2,480 4.5 -7.7°
Sets 06:45:36 0° 190° (S) 3,410 5.4 -7.3°
